SVRATOUCH Weather Reports


Display with metric or nautical units.
time (UTC)temp
F
wind
direction
speed
MPH
gust
MPH
rain 1hr
in
rain 24hr
in
rain mn
in
humidity
%
barometer
mb
20260507202029 48 10 7.0 0.0 0.00 0.00 0.00 87
20260507192118 50 340 12.0 0.0 0.00 0.00 0.00 76
20260507182026 54 310 7.0 0.0 0.00 0.00 0.00 58
20260507172026 57 290 9.0 0.0 0.00 0.00 0.00 50
20260507162316 57 280 9.0 0.0 0.00 0.00 0.00 54
20260507152033 61 280 12.0 0.0 0.00 0.00 0.00 51
20260507142028 55 260 9.0 0.0 0.00 0.00 0.00 66
20260507132118 61 270 14.0 0.0 0.00 0.00 0.00 48
20260507122026 59 260 9.0 0.0 0.00 0.00 0.00 51
20260507112034 61 250 16.0 0.0 0.00 0.00 0.00 51
20260507102215 57 230 12.0 0.0 0.00 0.00 0.00 58
20260507092027 57 250 14.0 0.0 0.00 0.00 0.00 67
20260507082026 52 250 12.0 0.0 0.00 0.00 0.00 76
20260507072027 52 260 14.0 0.0 0.00 0.00 0.00 81
20260507062026 52 250 9.0 0.0 0.00 0.00 0.00 81
20260507052026 50 260 14.0 0.0 0.00 0.00 0.00 87
20260507042218 50 260 14.0 0.0 0.00 0.00 0.00 93
20260507032027 48 220 5.0 0.0 0.00 0.00 0.00 93
20260507022025 50 300 5.0 0.0 0.00 0.00 0.00 87
20260507012116 50 310 5.0 0.0 0.00 0.00 0.00 93
20260507002026 50 350 7.0 0.0 0.00 0.00 0.00 93
20260506232026 50 350 14.0 0.0 0.00 0.00 0.00 93
20260506222247 54 260 14.0 0.0 0.00 0.00 0.00 81
20260506212048 52 180 9.0 0.0 0.00 0.00 0.00 93